| time (UTC) | temp F | wind direction | speed knots | gust knots | rain 1hr in | rain 24hr in | rain mn in | humidity % | barometer mb |
| 20260504213004 | 72 | 193 | 2.6 | 13.9 | 0.00 | 0.00 | 0.00 | 38 | 1008.2 |
| 20260504212504 | 73 | 201 | 5.2 | 11.3 | 0.00 | 0.00 | 0.00 | 37 | 1009.0 |
| 20260504212006 | 73 | 187 | 5.2 | 12.2 | 0.00 | 0.00 | 0.00 | 40 | 1008.8 |
| 20260504211004 | 72 | 205 | 6.1 | 10.4 | 0.00 | 0.00 | 0.00 | 39 | 1008.9 |
| 20260504210505 | 72 | 204 | 5.2 | 13.0 | 0.00 | 0.00 | 0.00 | 37 | 1008.9 |
| 20260504210024 | 73 | 212 | 4.3 | 13.0 | 0.00 | 0.00 | 0.00 | 37 | 1009.0 |
| 20260504210006 | 72 | 205 | 7.8 | 13.0 | 0.00 | 0.00 | 0.00 | 38 | 1008.3 |
| 20260504204530 | 73 | 237 | 2.6 | 8.7 | 0.00 | 0.00 | 0.00 | 39 | 1008.3 |
| 20260504203051 | 72 | 200 | 4.3 | 11.3 | 0.00 | 0.00 | 0.00 | 38 | 1008.2 |
| 20260504201518 | 72 | 226 | 4.3 | 14.8 | 0.00 | 0.00 | 0.00 | 38 | 1008.3 |
| 20260504200506 | 73 | 149 | 4.3 | 13.9 | 0.00 | 0.00 | 0.00 | 37 | 1009.0 |
| 20260504200121 | 72 | 121 | 3.5 | 8.7 | 0.00 | 0.00 | 0.00 | 38 | 1008.3 |
| 20260504194558 | 72 | 155 | 3.5 | 11.3 | 0.00 | 0.00 | 0.00 | 39 | 1008.4 |
| 20260504194505 | 72 | 243 | 5.2 | 11.3 | 0.00 | 0.00 | 0.00 | 38 | 1009.2 |
| 20260504193503 | 72 | 193 | 6.1 | 13.0 | 0.00 | 0.00 | 0.00 | 38 | 1009.2 |
| 20260504193007 | 72 | 229 | 5.2 | 13.0 | 0.00 | 0.00 | 0.00 | 38 | 1008.5 |
| 20260504191540 | 72 | 244 | 3.5 | 7.8 | 0.00 | 0.00 | 0.00 | 39 | 1008.6 |
| 20260504191010 | 72 | 211 | 3.5 | 8.7 | 0.00 | 0.00 | 0.00 | 40 | 1009.6 |
| 20260504190105 | 72 | 272 | 4.3 | 12.2 | 0.00 | 0.00 | 0.00 | 39 | 1009.0 |
| 20260504184607 | 71 | 223 | 7.0 | 11.3 | 0.00 | 0.00 | 0.00 | 37 | 1009.2 |
| 20260504183050 | 71 | 188 | 7.8 | 16.5 | 0.00 | 0.00 | 0.00 | 38 | 1009.4 |
| 20260504181546 | 71 | 194 | 6.1 | 12.2 | 0.00 | 0.00 | 0.00 | 39 | 1009.6 |
| 20260504180107 | 70 | 151 | 3.5 | 9.6 | 0.00 | 0.00 | 0.00 | 40 | 1009.8 |
| 20260504175506 | 70 | 202 | 5.2 | 14.8 | 0.00 | 0.00 | 0.00 | 41 | 1010.5 |
| 20260504175004 | 70 | 188 | 6.1 | 14.8 | 0.00 | 0.00 | 0.00 | 41 | 1010.7 |
| 20260504173018 | 69 | 146 | 8.7 | 17.4 | 0.00 | 0.00 | 0.00 | 41 | 1010.1 |
| 20260504173005 | 70 | 166 | 6.1 | 14.8 | 0.00 | 0.00 | 0.00 | 41 | 1010.9 |
| 20260504171511 | 69 | 257 | 4.3 | 11.3 | 0.00 | 0.00 | 0.00 | 43 | 1010.3 |
| 20260504171506 | 69 | 237 | 6.1 | 20.0 | 0.00 | 0.00 | 0.00 | 43 | 1011.0 |
| 20260504171004 | 69 | 230 | 6.1 | 20.0 | 0.00 | 0.00 | 0.00 | 43 | 1011.2 |
| 20260504170142 | 68 | 213 | 5.2 | 15.6 | 0.00 | 0.00 | 0.00 | 42 | 1010.6 |
| 20260504160108 | 67 | 172 | 4.3 | 9.6 | 0.00 | 0.00 | 0.00 | 41 | 1011.5 |
| 20260504150507 | 65 | 189 | 7.0 | 13.0 | 0.00 | 0.00 | 0.00 | 49 | 1012.6 |
| 20260504150119 | 65 | 180 | 6.1 | 10.4 | 0.00 | 0.00 | 0.00 | 46 | 1011.9 |
| 20260504140527 | 62 | 234 | 3.5 | 10.4 | 0.00 | 0.00 | 0.00 | 58 | 1012.9 |
| 20260504130506 | 59 | 204 | 5.2 | 9.6 | 0.00 | 0.00 | 0.00 | 62 | 1013.3 |
| 20260504120157 | 54 | 181 | 5.2 | 10.4 | 0.00 | 0.00 | 0.00 | 72 | 1013.0 |
| 20260504100503 | 47 | 173 | 3.5 | 7.8 | 0.00 | 0.00 | 0.00 | 75 | 1013.6 |
| 20260504090125 | 46 | 140 | 1.7 | 3.5 | 0.00 | 0.00 | 0.00 | 64 | 1013.0 |
| 20260504081636 | 47 | 205 | 0.0 | 1.7 | 0.00 | 0.00 | 0.00 | 61 | 1013.0 |
| 20260504044519 | 51 | 208 | 1.7 | 5.2 | 0.00 | 0.00 | 0.00 | 53 | 1012.7 |
| 20260504043114 | 51 | 192 | 1.7 | 5.2 | 0.00 | 0.00 | 0.00 | 53 | 1012.4 |
| 20260504042504 | 52 | 194 | 2.6 | 6.1 | 0.00 | 0.00 | 0.00 | 53 | 1013.0 |
| 20260504042007 | 52 | 186 | 2.6 | 7.0 | 0.00 | 0.00 | 0.00 | 53 | 1012.9 |
| 20260504041549 | 51 | 173 | 1.7 | 7.0 | 0.00 | 0.00 | 0.00 | 53 | 1012.3 |
| 20260504040504 | 52 | 183 | 2.6 | 5.2 | 0.00 | 0.00 | 0.00 | 53 | 1012.8 |
| 20260504035044 | 52 | 173 | 1.7 | 5.2 | 0.00 | 0.00 | 0.00 | 52 | 1012.7 |
| 20260504034545 | 52 | 171 | 1.7 | 5.2 | 0.00 | 0.00 | 0.00 | 52 | 1012.1 |
| 20260504033107 | 52 | 166 | 0.9 | 4.3 | 0.00 | 0.00 | 0.00 | 52 | 1012.1 |
| 20260504031536 | 52 | 196 | 1.7 | 6.1 | 0.00 | 0.00 | 0.00 | 51 | 1012.0 |
| 20260504031532 | 53 | 165 | 2.6 | 6.1 | 0.00 | 0.00 | 0.00 | 51 | 1012.6 |
| 20260504030114 | 52 | 161 | 2.6 | 4.3 | 0.00 | 0.00 | 0.00 | 51 | 1011.9 |
| 20260504025024 | 53 | 183 | 1.7 | 5.2 | 0.00 | 0.00 | 0.00 | 50 | 1012.5 |
| 20260504024649 | 52 | 144 | 1.7 | 5.2 | 0.00 | 0.00 | 0.00 | 50 | 1011.9 |
| 20260504023100 | 53 | 217 | 2.6 | 6.1 | 0.00 | 0.00 | 0.00 | 49 | 1011.9 |
| 20260504021537 | 53 | 199 | 1.7 | 4.3 | 0.00 | 0.00 | 0.00 | 48 | 1011.9 |
| 20260504021506 | 53 | 189 | 2.6 | 2.6 | 0.00 | 0.00 | 0.00 | 49 | 1012.5 |
| 20260504020041 | 53 | 174 | 1.7 | 4.3 | 0.00 | 0.00 | 0.00 | 48 | 1011.9 |
| 20260504014541 | 54 | 175 | 2.6 | 4.3 | 0.00 | 0.00 | 0.00 | 47 | 1012.4 |
| 20260504014004 | 54 | 181 | 2.6 | 6.1 | 0.00 | 0.00 | 0.00 | 47 | 1012.4 |
| 20260504013116 | 54 | 180 | 1.7 | 4.3 | 0.00 | 0.00 | 0.00 | 47 | 1011.7 |
| 20260504012504 | 54 | 170 | 2.6 | 5.2 | 0.00 | 0.00 | 0.00 | 47 | 1012.3 |
| 20260504011516 | 54 | 169 | 1.7 | 4.3 | 0.00 | 0.00 | 0.00 | 46 | 1011.6 |
| 20260504010012 | 54 | 186 | 0.9 | 4.3 | 0.00 | 0.00 | 0.00 | 45 | 1011.3 |
| 20260504005503 | 55 | 179 | 1.7 | 3.5 | 0.00 | 0.00 | 0.00 | 45 | 1011.8 |
| 20260504004540 | 55 | 157 | 1.7 | 5.2 | 0.00 | 0.00 | 0.00 | 44 | 1011.1 |
| 20260504004504 | 56 | 169 | 1.7 | 5.2 | 0.00 | 0.00 | 0.00 | 43 | 1011.7 |
| 20260504003512 | 56 | 196 | 1.7 | 4.3 | 0.00 | 0.00 | 0.00 | 42 | 1011.7 |
| 20260504001619 | 57 | 238 | 1.7 | 6.1 | 0.00 | 0.00 | 0.00 | 41 | 1010.9 |
| 20260504001503 | 57 | 195 | 1.7 | 6.1 | 0.00 | 0.00 | 0.00 | 41 | 1011.4 |
| 20260503235003 | 58 | 237 | 2.6 | 8.7 | 0.00 | 0.00 | 0.00 | 39 | 1011.3 |
| 20260503234609 | 58 | 285 | 1.7 | 8.7 | 0.00 | 0.00 | 0.00 | 39 | 1010.6 |
| 20260503233505 | 59 | 214 | 1.7 | 7.0 | 0.00 | 0.00 | 0.00 | 38 | 1011.1 |
| 20260503233004 | 59 | 235 | 0.9 | 7.0 | 0.00 | 0.00 | 0.00 | 38 | 1010.4 |
| 20260503230047 | 60 | 249 | 2.6 | 8.7 | 0.00 | 0.00 | 0.00 | 36 | 1010.3 |
| 20260503225503 | 60 | 257 | 4.3 | 13.0 | 0.00 | 0.00 | 0.00 | 35 | 1010.9 |
| 20260503224547 | 60 | 262 | 4.3 | 13.0 | 0.00 | 0.00 | 0.00 | 34 | 1010.2 |
| 20260503223123 | 61 | 275 | 1.7 | 9.6 | 0.00 | 0.00 | 0.00 | 35 | 1010.1 |
| 20260503221507 | 61 | 252 | 2.6 | 8.7 | 0.00 | 0.00 | 0.00 | 34 | 1010.1 |
| 20260503221004 | 61 | 320 | 3.5 | 9.6 | 0.00 | 0.00 | 0.00 | 34 | 1010.8 |
| 20260503220048 | 61 | 317 | 2.6 | 12.2 | 0.00 | 0.00 | 0.00 | 35 | 1010.2 |
| 20260503220004 | 61 | 304 | 3.5 | 12.2 | 0.00 | 0.00 | 0.00 | 33 | 1010.8 |
| 20260503214516 | 60 | 321 | 3.5 | 11.3 | 0.00 | 0.00 | 0.00 | 34 | 1010.1 |